Content
SEND FEEDBACK

Daily
Averages
Monthly
Summary
United States of America

DALHART, TEXAS


Home > North America > United States > Texas
Elevation: 3989 feet     Latitude: 36 01N     Longitude: 102 33W

WEATHER
 
SELECT A DAY
Number of Records: 185,879;   Date Range: 1/1/95 - 7/27/14
 
SHARE

PRINT THIS DATA

[ ← Previous Day ]
WEATHER ALMANAC - JANUARY 31, 2013
[ Next Day → ]
[ °C ]   °F
Weather ElementAverageHighLow
Temperature38.6 °F55.9 °F (12:53 pm)26.1 °F (2:53 am)
Dewpoint17.2 °F21 °F (5:53 pm)10 °F (12:53 pm)
Humidity46.2 %72 % (11:53 pm)16 % (12:53 pm)
Barometer30.12 in30.24 in (7:53 pm)30.01 in (3:53 am)
Wind Speed11.3 mph20.7 mph (2:53 pm)
Wind Gust25.3 mph (2:53 pm)
Weather ElementAverage
Visibility10 mi
Wind DirectionSSW (208.2 °)

Weather ElementTotal
Precipitation---
Heating Degree Days24 (Base 65)
Averaged from 22 records on January 31, 2013
WEATHER CONDITIONS BREAKOUT
WIND DIRECTION BREAKOUT
WEATHER BY HOUR - JANUARY 31, 2013
[ °C ]   °F
Local TimeTemperatureDewpointHumidityBarometerVisibilityWind DirectionWind SpeedGust SpeedPrecipitationEventsConditions
1:53 AM28.0 °F16.0 °F61 %30.02 in10.0 miWest (280°)9.2 mphClear
2:53 AM26.1 °F16.0 °F66 %30.02 in10.0 miWest (280°)8.1 mphClear
3:53 AM28.0 °F16.0 °F61 %30.01 in10.0 miWNW (290°)10.4 mphClear
4:53 AM30.0 °F16.0 °F56 %30.01 in10.0 miWNW (290°)11.5 mphClear
5:53 AM30.2 °F15.8 °F55 %30.01 in10.0 miWNW (290°)12.7 mphClear
6:53 AM28.9 °F15.1 °F56 %30.07 in10.0 miWNW (300°)10.4 mphClear
7:53 AM30.0 °F15.1 °F54 %30.09 in10.0 miWNW (300°)10.4 mphClear
8:53 AM35.1 °F17.1 °F48 %30.11 in10.0 miWNW (290°)9.2 mphClear
9:53 AM43.0 °F18.0 °F37 %30.13 in10.0 miWNW (290°)11.5 mphClear
10:53 AM51.1 °F15.1 °F24 %30.11 in10.0 miWNW (300°)12.7 mphClear
11:53 AM55.0 °F10.9 °F17 %30.09 in10.0 miNNW (330°)12.7 mph20.7 mphClear
12:53 PM55.9 °F10.0 °F16 %30.10 in10.0 miNW (320°)10.4 mph19.6 mphClear
2:53 PM55.9 °F19.0 °F24 %30.10 in10.0 miNE (50°)20.7 mph25.3 mphClear
3:53 PM53.1 °F18.0 °F25 %30.13 in10.0 miNE (40°)17.3 mphClear
4:53 PM50.0 °F19.9 °F31 %30.16 in10.0 miEast (80°)15.0 mphClear
5:53 PM46.9 °F21.0 °F36 %30.19 in10.0 miEast (90°)12.7 mphClear
6:53 PM39.9 °F19.9 °F45 %30.23 in10.0 miEast (100°)11.5 mphClear
7:53 PM37.0 °F21.0 °F52 %30.24 in10.0 miESE (110°)10.4 mphClear
8:53 PM35.1 °F19.9 °F54 %30.24 in10.0 miSSE (160°)6.9 mphClear
9:53 PM32.0 °F19.4 °F60 %30.21 in10.0 miSE (140°)6.9 mphClear
10:53 PM28.9 °F19.0 °F67 %30.22 in10.0 miESE (110°)5.8 mphClear
11:53 PM28.0 °F19.9 °F72 %30.21 in10.0 miSE (140°)11.5 mphClear
Hourly data recorded from KDHT, located miles away from Dalhart, Texas







STORIES FROM OUR PARTNERS